Weather History for KFKA - November, 2012

Change the Weather History Date:

Thursday, November 15, 2012

  Actual Average (KRST) Record (KRST)
Temperature  
Mean Temperature 44 °F 34 °F  
Max Temperature 53 °F 42 °F 67 °F (2001)
Min Temperature 35 °F 27 °F -5 °F (1915)
Degree Days  
Heating Degree Days 20 31  
Month to date heating degree days 404  
Since 1 July heating degree days 1140  
Cooling Degree Days 0 0  
Month to date cooling degree days 0  
Year to date cooling degree days 585  
Moisture  
Dew Point 30 °F    
Average Humidity 58    
Maximum Humidity 70    
Minimum Humidity 46    
Precipitation  
Precipitation 0.00 in 0.07 in 0.98 in (1988)
Month to date precipitation 0.99  
Year to date precipitation 30.87  
Snow  
Snow 0.00 in 0.20 in 5.00 in (1911)
Month to date snowfall 2.0  
Since 1 July snowfall 2.8  
Snow Depth -    
Sea Level Pressure  
Sea Level Pressure 30.26 in    
Wind  
Wind Speed 10 mph (West)    
Max Wind Speed 14 mph    
Max Gust Speed -    
Visibility 10 miles    
Events      
T = Trace of Precipitation, MM = Missing Value Source: NWS Daily Summary

Daily Weather History Graph

Daily Weather History Graph

Search for Another Location

Airport or City:

Trip Planner

Search our weather history database for the weather conditions in past years. The results will help you decide how hot, cold, wet, or windy it might be!

Date:

Astronomy

Nov. 15, 2012 Rise Set
Actual Time 7:03 AM CST 4:42 PM CST
Civil Twilight 6:32 AM CST 5:13 PM CST
Nautical Twilight 5:57 AM CST 5:48 PM CST
Astronomical Twilight 5:23 AM CST 6:22 PM CST
Moon 9:01 AM CST (11/15) 6:32 PM CST (11/15)
Length of Visible Light 10h 41m
Length of Day
9h 39m
Waxing Crescent, 5% of the Moon is Illuminated
Nov 15
Waxing Crescent
Nov 20
First Quarter
Nov 28
Full
Dec 6
Last Quarter
Dec 13
New

Hourly Weather History & Observations

Time (CST) Temp. Windchill Dew Point Humidity Pressure Visibility Wind Dir Wind Speed Gust Speed Precip Events Conditions
12:10 AM 42.8 °F 37.0 °F 28.2 °F 56% 30.22 in 10.0 mi SSW 10.4 mph - N/A   Scattered Clouds
12:30 AM 42.8 °F 37.0 °F 28.4 °F 57% 30.22 in 10.0 mi South 10.4 mph - N/A   Mostly Cloudy
12:50 AM 43.0 °F 36.8 °F 28.4 °F 56% 30.21 in 10.0 mi South 11.5 mph - N/A   Overcast
1:10 AM 42.8 °F 36.6 °F 28.4 °F 57% 30.21 in 10.0 mi South 11.5 mph - N/A   Overcast
1:29 AM 42.8 °F 36.6 °F 28.4 °F 57% 30.21 in 10.0 mi South 11.5 mph - N/A   Overcast
1:50 AM 42.8 °F 35.8 °F 28.4 °F 57% 30.21 in 10.0 mi South 13.8 mph - N/A   Overcast
2:10 AM 42.8 °F 35.8 °F 28.4 °F 57% 30.21 in 10.0 mi South 13.8 mph - N/A   Overcast
2:29 AM 42.3 °F 35.5 °F 28.8 °F 59% 30.21 in 10.0 mi South 12.7 mph - N/A   Overcast
2:50 AM 41.9 °F 35.0 °F 28.9 °F 60% 30.21 in 10.0 mi South 12.7 mph - N/A   Overcast
3:10 AM 41.4 °F 34.7 °F 28.9 °F 61% 30.20 in 10.0 mi South 11.5 mph - N/A   Overcast
3:30 AM 41.0 °F 34.3 °F 29.1 °F 63% 30.20 in 10.0 mi South 11.5 mph - N/A   Overcast
3:50 AM 41.0 °F 34.7 °F 28.9 °F 62% 30.20 in 10.0 mi SSW 10.4 mph - N/A   Mostly Cloudy
4:10 AM 41.0 °F 33.9 °F 28.8 °F 62% 30.19 in 10.0 mi SSW 12.7 mph - N/A   Scattered Clouds
4:30 AM 40.8 °F 33.7 °F 28.9 °F 63% 30.19 in 10.0 mi South 12.7 mph - N/A   Clear
4:50 AM 40.6 °F 33.8 °F 29.1 °F 64% 30.19 in 10.0 mi SSW 11.5 mph - N/A   Clear
5:10 AM 40.3 °F 33.4 °F 29.1 °F 64% 30.19 in 10.0 mi South 11.5 mph - N/A   Mostly Cloudy
5:30 AM 40.1 °F 32.7 °F 29.1 °F 65% 30.19 in 10.0 mi SSW 12.7 mph - N/A   Overcast
5:50 AM 40.1 °F 32.4 °F 29.1 °F 65% 30.18 in 10.0 mi South 13.8 mph - N/A   Scattered Clouds
6:10 AM 39.6 °F 31.7 °F 28.9 °F 66% 30.19 in 10.0 mi South 13.8 mph - N/A   Scattered Clouds
6:30 AM 39.4 °F 32.3 °F 29.3 °F 67% 30.19 in 10.0 mi South 11.5 mph - N/A   Mostly Cloudy
6:50 AM 39.7 °F 32.7 °F 29.3 °F 66% 30.19 in 10.0 mi SSW 11.5 mph - N/A   Overcast
7:10 AM 40.1 °F 32.7 °F 29.3 °F 65% 30.20 in 10.0 mi South 12.7 mph - N/A   Overcast
9:50 AM 45.5 °F 40.3 °F 30.4 °F 56% 30.22 in 10.0 mi SSW 10.4 mph - N/A   Clear
10:07 AM 46.4 °F 42.4 °F 31.1 °F 55% 30.23 in 10.0 mi SSW 8.1 mph - N/A   Clear
10:30 AM 48.4 °F - 31.6 °F 52% 30.23 in 10.0 mi WSW 8.1 mph - N/A   Clear
10:50 AM 49.5 °F - 31.1 °F 49% 30.23 in 10.0 mi SW 6.9 mph - N/A   Clear
11:10 AM 50.0 °F - 31.6 °F 49% 30.23 in 10.0 mi WSW 4.6 mph - N/A   Clear
11:30 AM 50.4 °F - 32.0 °F 49% 30.23 in 10.0 mi West 5.8 mph - N/A   Clear
11:50 AM 51.3 °F - 32.4 °F 48% 30.23 in 10.0 mi WSW 5.8 mph - N/A   Clear
12:10 PM 51.4 °F - 32.4 °F 48% 30.22 in 10.0 mi West 6.9 mph - N/A   Clear
12:29 PM 52.5 °F - 33.6 °F 49% 30.22 in 10.0 mi WSW 8.1 mph - N/A   Clear
12:50 PM 53.1 °F - 33.6 °F 48% 30.22 in 10.0 mi West 8.1 mph - N/A   Clear
1:10 PM 52.9 °F - 34.0 °F 49% 30.23 in 10.0 mi West 9.2 mph - N/A   Clear
1:29 PM 52.7 °F - 34.0 °F 49% 30.22 in 10.0 mi WNW 9.2 mph - N/A   Clear
1:50 PM 52.9 °F - 33.6 °F 48% 30.23 in 10.0 mi West 6.9 mph - N/A   Clear
2:10 PM 53.6 °F - 33.6 °F 47% 30.23 in 10.0 mi WNW 6.9 mph - N/A   Clear
2:30 PM 53.6 °F - 33.1 °F 46% 30.23 in 10.0 mi NW 8.1 mph - N/A   Clear
2:50 PM 53.6 °F - 33.1 °F 46% 30.24 in 10.0 mi NW 9.2 mph - N/A   Clear
3:10 PM 53.6 °F - 33.3 °F 46% 30.25 in 10.0 mi NW 6.9 mph - N/A   Clear
3:30 PM 52.9 °F - 33.3 °F 47% 30.25 in 10.0 mi NW 9.2 mph - N/A   Clear
3:50 PM 52.3 °F - 33.6 °F 49% 30.26 in 10.0 mi NW 6.9 mph - N/A   Clear
4:10 PM 51.1 °F - 33.4 °F 51% 30.27 in 10.0 mi NNW 5.8 mph - N/A   Clear
4:30 PM 49.8 °F - 33.1 °F 53% 30.27 in 10.0 mi NNW 4.6 mph - N/A   Clear
4:50 PM 48.7 °F - 32.9 °F 54% 30.28 in 10.0 mi NW 4.6 mph - N/A   Clear
5:10 PM 47.3 °F - 32.9 °F 57% 30.28 in 10.0 mi NW 4.6 mph - N/A   Clear
5:30 PM 46.6 °F - 32.5 °F 58% 30.29 in 10.0 mi NW 4.6 mph - N/A   Clear
5:50 PM 45.7 °F 42.7 °F 32.5 °F 60% 30.30 in 10.0 mi NW 5.8 mph - N/A   Clear
6:10 PM 45.0 °F 42.6 °F 32.2 °F 61% 30.31 in 10.0 mi NW 4.6 mph - N/A   Clear
6:30 PM 44.6 °F 40.7 °F 32.0 °F 61% 30.32 in 10.0 mi NW 6.9 mph - N/A   Clear
6:50 PM 43.9 °F 39.3 °F 32.0 °F 63% 30.33 in 10.0 mi NW 8.1 mph - N/A   Clear
7:30 PM 41.9 °F 36.9 °F 32.0 °F 68% 30.33 in 10.0 mi NW 8.1 mph - N/A   Clear
7:50 PM 41.9 °F 36.3 °F 32.0 °F 68% 30.34 in 10.0 mi NNW 9.2 mph - N/A   Clear
8:10 PM 41.4 °F 35.7 °F 31.8 °F 69% 30.34 in 10.0 mi NNW 9.2 mph - N/A   Clear
8:30 PM 40.8 °F 35.0 °F 31.1 °F 68% 30.35 in 10.0 mi NNW 9.2 mph - N/A   Clear
8:50 PM 39.7 °F 33.2 °F 30.7 °F 70% 30.36 in 10.0 mi NNW 10.4 mph - N/A   Clear
9:10 PM 40.1 °F 33.6 °F 30.2 °F 68% 30.36 in 10.0 mi NNW 10.4 mph - N/A   Clear
9:30 PM 40.3 °F 34.9 °F 28.4 °F 63% 30.36 in 10.0 mi North 8.1 mph - N/A   Clear
9:50 PM 39.4 °F 33.8 °F 27.3 °F 62% 30.37 in 10.0 mi North 8.1 mph - N/A   Clear
10:10 PM 38.8 °F 31.6 °F 26.2 °F 61% 30.37 in 10.0 mi North 11.5 mph - N/A   Clear
10:30 PM 38.3 °F 31.4 °F 25.5 °F 60% 30.38 in 10.0 mi North 10.4 mph - N/A   Clear
10:50 PM 37.9 °F 31.5 °F 23.9 °F 57% 30.39 in 10.0 mi North 9.2 mph - N/A   Clear
11:10 PM 36.7 °F 31.2 °F 23.4 °F 59% 30.39 in 10.0 mi North 6.9 mph - N/A   Clear
11:30 PM 36.0 °F 31.1 °F 22.6 °F 58% 30.40 in 10.0 mi North 5.8 mph - N/A   Clear
11:49 PM 35.6 °F 29.9 °F 22.5 °F 59% 30.40 in 10.0 mi North 6.9 mph - N/A   Clear